Vertical_Velocity
-0 -0 0 0 1 1 1 1 1 1 1 1 0 0 0 1 1 1 1 1 -0 -1 -1 -0 -0 -1 -1 -2 -2 -2 -2 -2 -2 -2 -2 -1 -1 -1 -1 -2 -2 -1 -1 -1 -1 -1 -1 -2 -2 -3 -3 -1 1 2 2 4 3 1 -0 0 -0 -0 0 1 2 3 3 1 -1
-1 -1 -0 -0 -0 0 1 1 1 0 0 -0 -0 -0 -0 0 1 1 2 2 1 1 0 0 0 1 0 -1 -1 -1 -1 -1 -1 -1 -1 -1 -1 -1 -1 -1 -1 -1 -1 -1 -1 -1 -1 -2 -2 -3 -3 -1 1 2 2 3 4 2 0 0 0 0 0 1 2 3 3 1 -0
-1 -1 -1 -1 -0 0 1 1 1 1 1 -0 -0 -0 -0 -0 0 2 2 3 2 2 2 1 2 2 2 1 1 0 0 0 0 -0 -0 -0 -0 -0 -0 -0 -0 -0 -0 -0 -0 -1 -1 -2 -2 -2 -2 -1 1 2 3 3 4 3 1 0 1 1 1 1 3 4 4 2 2
-1 -1 -1 -1 -0 0 1 1 2 1 1 1 1 0 -0 -0 0 1 2 3 3 3 2 2 2 3 3 4 3 2 2 1 1 1 1 1 1 1 0 1 1 0 0 0 0 -0 -1 -2 -3 -2 -1 0 2 3 4 4 3 2 1 1 2 3 2 2 3 4 4 2 3
-1 -0 -0 0 0 0 1 1 2 1 1 1 1 0 -0 -0 -0 0 1 2 3 2 2 2 2 2 3 4 4 4 3 2 2 2 2 2 2 2 2 2 1 1 1 1 0 -0 -1 -2 -3 -3 -1 0 2 3 4 4 3 1 -0 0 2 3 4 3 3 4 4 2 3
0 -0 -0 0 1 1 0 1 1 1 1 1 1 0 -1 -1 -0 0 0 1 1 2 2 2 2 2 2 3 4 4 4 3 2 2 3 3 3 3 3 2 2 2 2 1 1 0 -1 -1 -3 -3 -2 1 1 2 3 5 2 0 -0 0 1 3 4 2 3 4 4 2 4
0 -0 -0 -1 0 0 0 0 0 0 0 0 0 -0 -1 -1 -0 -0 -0 0 1 1 1 1 1 1 2 3 3 3 3 3 3 3 3 3 3 4 4 4 4 3 3 3 2 1 -0 -1 -1 -1 -1 1 2 3 3 5 3 1 0 0 0 2 4 2 2 4 5 3 4
-1 -1 -1 -1 -1 -0 0 -0 0 0 -0 -0 -0 -1 -1 -1 -1 -1 -1 0 0 0 0 0 0 1 1 2 2 3 3 4 3 3 3 4 4 4 5 5 5 5 4 4 4 2 1 -0 0 1 1 2 2 3 4 5 3 2 2 2 0 1 3 4 2 3 4 5 4
-2 -2 -2 -1 -1 -0 -0 -0 -0 0 -0 -1 -1 -1 -1 -1 -1 -1 -0 0 -0 -0 -0 -0 -0 0 1 1 2 2 2 3 3 3 3 4 5 4 4 5 5 5 5 5 4 3 1 1 1 1 2 3 2 2 2 5 3 2 1 3 3 2 2 4 4 3 2 4 4
-2 -2 -2 -1 -1 -1 -0 -0 -1 -0 -0 -1 -1 -1 -1 -2 -2 -1 -1 -0 0 -0 -1 -2 -1 -0 -0 0 0 0 1 1 2 3 3 4 4 4 4 4 5 5 4 4 4 3 2 1 2 1 1 2 2 1 0 2 2 0 -1 0 3 3 2 2 5 4 2 1 2
-1 -1 -1 -1 -1 -1 -0 0 -1 -1 -1 -1 -2 -2 -2 -2 -3 -3 -2 -1 -0 -1 -2 -2 -2 -1 -2 -1 -1 -1 -1 -0 0 1 2 3 3 3 3 3 3 4 4 3 3 2 1 0 1 1 1 0 1 0 -1 -1 -0 -1 -2 -2 1 2 2 2 5 4 2 -1 -0
-1 -1 -1 -1 -1 -0 -0 -0 -1 -1 -1 -2 -2 -2 -2 -3 -3 -3 -3 -2 -1 -1 -2 -2 -2 -2 -2 -2 -2 -2 -2 -2 -1 -1 0 1 1 1 2 1 2 2 2 2 1 1 -0 -1 0 0 -0 -1 -0 -0 -1 -2 -2 -2 -3 -3 -2 -0 1 1 4 4 2 -0 -0
-1 -2 -2 -2 -1 -1 -1 -2 -2 -1 -1 -2 -3 -3 -3 -3 -4 -3 -3 -3 -3 -2 -2 -2 -2 -2 -2 -3 -3 -2 -2 -2 -2 -1 -1 -0 -0 0 0 0 0 1 0 0 0 0 -1 -2 -1 -1 -1 -2 -2 -1 -1 -2 -3 -3 -3 -3 -3 -2 -1 1 2 2 2 -0 -0
-2 -2 -3 -2 -2 -2 -2 -2 -3 -2 -2 -2 -3 -3 -3 -3 -4 -4 -3 -3 -3 -3 -2 -2 -2 -2 -2 -2 -3 -3 -2 -2 -2 -1 -1 -1 -0 -0 -0 -1 -0 0 0 -0 -0 0 0 -1 -2 -2 -2 -2 -2 -1 -1 -1 -2 -3 -3 -2 -2 -2 -2 -0 1 1 1 -0 -1
-3 -4 -4 -3 -3 -3 -3 -3 -3 -3 -2 -2 -3 -3 -3 -3 -4 -3 -3 -4 -4 -3 -2 -1 -2 -2 -2 -1 -2 -2 -2 -2 -1 -0 -0 -0 -0 0 -0 -0 0 0 0 0 0 1 1 1 -1 -2 -2 -2 -2 -1 -1 -1 -2 -2 -3 -2 -2 -2 -2 -1 0 1 0 -1 -1
-4 -4 -4 -3 -3 -3 -3 -3 -3 -3 -2 -3 -3 -3 -3 -3 -3 -3 -3 -3 -4 -3 -2 -1 -1 -1 -1 -1 -1 -1 -1 -2 -1 0 0 -0 0 1 1 0 1 1 1 1 1 1 2 2 1 -1 -2 -2 -2 -1 -0 -0 -1 -1 -2 -2 -2 -2 -1 -0 0 0 -0 -1 -1
-3 -4 -3 -3 -3 -3 -3 -3 -3 -3 -3 -3 -3 -3 -3 -3 -3 -3 -3 -2 -3 -3 -3 -2 -1 -0 -0 -1 -1 -0 -0 -2 -1 -0 0 0 0 1 1 1 1 1 1 1 1 2 2 1 1 -0 -1 -2 -2 -1 -0 -0 -0 -0 -0 -0 -1 -0 0 0 1 0 -0 -1 -1
-3 -3 -3 -2 -3 -3 -3 -3 -3 -3 -3 -3 -2 -3 -3 -3 -2 -3 -3 -3 -2 -2 -3 -3 -2 -1 -0 -0 -1 -1 -0 -0 -2 -1 -0 0 -1 -0 0 1 0 1 1 1 1 2 2 1 0 -1 -1 -2 -2 -2 -1 -0 -0 -0 0 1 1 1 1 2 1 1 0 -1 -1
-2 -2 -2 -2 -2 -2 -2 -2 -2 -3 -3 -2 -2 -2 -3 -3 -2 -2 -3 -4 -3 -3 -3 -3 -3 -2 -1 -0 -1 -1 -1 -0 -1 -2 -2 -0 -1 -1 -1 0 -0 0 1 1 0 0 0 0 -0 -1 -1 -2 -2 -2 -2 -1 -1 -0 0 2 2 2 2 2 2 1 0 -0 -1
-2 -2 -2 -2 -2 -2 -2 -2 -2 -2 -3 -2 -2 -2 -2 -3 -2 -2 -3 -3 -4 -3 -3 -4 -3 -3 -2 -2 -1 -1 -2 -1 -1 -2 -2 -1 -1 -1 -1 -1 -1 -0 1 2 0 -1 -1 -1 -1 -2 -2 -2 -2 -2 -2 -2 -2 -1 0 1 1 1 1 2 1 1 0 0 -0
-2 -2 -2 -2 -2 -2 -2 -2 -2 -2 -2 -2 -2 -2 -2 -2 -2 -2 -2 -3 -3 -3 -3 -4 -3 -3 -2 -2 -1 -1 -1 -1 -0 -1 -2 -2 -1 0 0 0 -1 -1 0 2 1 -1 -2 -1 -1 -2 -2 -3 -3 -2 -1 -1 -2 -2 -0 1 0 -0 -0 0 0 -0 -0 -0 -0
-2 -2 -2 -2 -2 -2 -2 -2 -2 -2 -2 -2 -2 -2 -2 -2 -2 -2 -2 -2 -2 -2 -3 -3 -3 -2 -2 -2 -1 -1 -1 -1 0 -0 -1 -1 -1 -1 0 1 0 -1 -1 0 0 -1 -2 -2 -1 -1 -1 -2 -4 -3 -1 0 -1 -2 -1 -0 -0 -1 -1 -1 -1 -1 -1 -1 -1
-2 -2 -2 -2 -1 -2 -2 -2 -2 -2 -2 -2 -2 -2 -2 -2 -2 -1 -1 -1 -1 -2 -2 -2 -2 -2 -2 -2 -1 -1 -1 -2 -1 -0 0 1 -0 -1 -1 -1 0 -0 -1 -1 -1 -1 -2 -3 -3 -2 -0 0 -2 -3 -2 0 -0 -1 -1 -1 -1 -1 -1 -1 -1 -1 -2 -1 -1
-3 -2 -2 -2 -1 -1 -1 -2 -2 -2 -2 -2 -1 -1 -1 -2 -1 -1 -1 -1 -1 -1 -1 -2 -2 -1 -1 -2 -1 -1 -1 -2 -2 -2 -1 -0 0 0 -1 -2 -2 -1 -0 -0 -1 -1 -2 -2 -3 -3 -2 -0 -0 -1 -1 1 0 -0 -1 -1 -1 -0 -0 1 1 0 -0 -1 -0
-2 -2 -2 -1 -1 -1 -2 -2 -2 -2 -2 -2 -1 -1 -1 -1 -1 -1 -1 -1 -1 -0 -0 -1 -2 -2 -1 -1 -1 -1 -2 -2 -2 -2 -3 -2 -1 -0 0 -1 -2 -2 -1 0 -0 -1 -2 -2 -3 -4 -4 -3 -2 -1 -0 1 2 1 -0 -0 0 0 0 1 3 3 3 2 1
-2 -2 -2 -1 -1 -1 -2 -2 -2 -2 -2 -1 -1 -1 -1 -1 -1 -1 -1 -1 -1 -1 -0 -1 -1 -1 -1 -1 -0 -1 -2 -3 -3 -3 -3 -4 -3 -2 -1 0 -0 -0 -1 -0 -1 -1 -0 -1 -2 -3 -4 -4 -4 -3 -2 -1 1 1 0 -1 0 1 1 1 3 4 4 4 3
-3 -2 -2 -1 -1 -1 -2 -2 -2 -2 -2 -1 -1 -1 -1 -1 -2 -2 -2 -2 -1 -1 -1 -1 -0 -0 -1 -2 -1 -0 -1 -2 -2 -3 -3 -3 -2 -2 -2 -2 -0 1 1 1 -1 -1 -0 -0 -1 -2 -3 -4 -5 -4 -3 -3 -1 0 0 -1 0 1 1 1 2 3 4 4 4
-3 -3 -2 -1 -1 -1 -1 -1 -2 -2 -2 -1 -1 -1 -1 -1 -1 -2 -2 -2 -2 -2 -1 -2 -1 -0 -0 -1 -2 -1 -0 -0 -1 -2 -3 -2 -1 -0 -1 -1 -1 0 2 2 -1 -1 -0 -0 -1 -1 -1 -2 -4 -4 -4 -3 -2 -1 0 0 0 1 1 0 1 2 3 3 3
-3 -2 -2 -1 -1 -1 -1 -1 -1 -1 -1 -0 -0 -1 -1 -1 -1 -1 -2 -2 -2 -2 -2 -2 -3 -2 -1 -0 -2 -2 -2 -0 -0 -1 -3 -3 -1 0 1 1 -0 -0 1 2 -0 -1 -1 -1 -1 -1 -1 -1 -3 -4 -4 -3 -2 -1 -0 1 1 1 1 0 0 1 2 2 2
-3 -2 -1 -1 -0 0 0 -0 -0 -0 -1 -1 -0 -1 -1 -1 -2 -2 -2 -2 -2 -2 -2 -1 -2 -3 -3 -1 -1 -2 -3 -2 0 1 -0 -2 -2 -1 1 2 1 1 1 2 -0 -1 -1 -1 -1 -1 -1 -1 -2 -3 -3 -3 -2 -1 -1 0 1 1 1 0 1 1 1 1 1
-3 -2 -1 -1 -0 0 0 -0 -0 -0 -1 -1 -1 -2 -2 -2 -2 -2 -2 -3 -2 -2 -1 0 -0 -2 -4 -3 -2 -2 -3 -3 -2 -1 0 1 -2 -1 0 2 1 1 2 2 0 -1 -1 -1 -1 -1 -1 -1 -2 -2 -2 -2 -1 -1 -1 -1 0 1 1 1 1 1 1 1 0
-2 -2 -1 -1 -1 -1 -0 -0 -1 -1 -1 -1 -2 -2 -3 -3 -2 -1 -1 -2 -3 -3 -3 -2 -1 -2 -3 -2 -2 -2 -1 0 -1 -2 -2 0 -1 -2 -1 1 2 2 2 1 0 -0 -1 -1 -1 -1 -1 -1 -1 -2 -2 -1 -1 -1 -1 -1 0 0 1 0 0 0 1 1 0
-3 -2 -2 -1 -2 -2 -2 -1 -2 -2 -2 -2 -3 -3 -2 -3 -3 -2 -1 -1 -1 -2 -3 -4 -3 -4 -4 -2 -1 -2 -1 2 3 0 -2 -2 -2 -2 -2 0 2 2 2 1 0 -0 -1 -1 -1 -1 -1 -1 -1 -1 -1 -1 -1 -1 -1 -0 0 1 1 0 -0 -0 -0 0 -0
-4 -4 -3 -2 -2 -2 -3 -3 -2 -3 -3 -3 -3 -3 -2 -1 -2 -3 -3 -3 -1 -1 -1 -3 -3 -3 -3 -3 -1 -2 -3 -2 2 2 -0 -3 -3 -2 -1 -0 2 2 2 0 -0 -1 -1 -1 -1 -1 -1 -1 -1 -1 -0 -0 -1 -1 -1 -0 1 1 1 0 -0 -1 -0 -0 -1
-4 -4 -4 -3 -2 -2 -3 -3 -3 -3 -3 -3 -3 -3 -2 -1 -0 -1 -2 -4 -4 -2 -1 -1 -2 -2 -2 -2 -0 -0 -2 -4 -3 -1 0 -1 -4 -3 -2 0 2 2 2 0 -1 -1 -1 -1 -1 -1 -1 -1 -1 -0 -0 -0 -0 -0 0 1 1 1 1 0 -0 -0 -0 -0 -1
-5 -4 -4 -4 -3 -3 -3 -3 -3 -3 -3 -3 -3 -2 -2 -2 -1 -1 -1 -2 -5 -4 -2 1 -1 -3 -2 -0 -0 0 1 -1 -4 -3 -1 -0 -3 -4 -3 0 2 3 2 1 -1 -2 -2 -1 -1 -1 -1 -1 -1 -0 -0 -0 0 1 1 2 2 2 1 0 0 0 0 0 -0
-4 -4 -4 -4 -4 -3 -3 -3 -4 -4 -4 -3 -2 -2 -2 -3 -3 -3 -2 -2 -4 -5 -3 2 2 -0 -2 -1 -1 0 1 1 -2 -4 -3 -1 -1 -3 -3 -1 3 4 3 1 -1 -1 -1 -1 -1 -1 -1 -1 -1 -0 -0 -0 0 1 2 3 2 2 1 1 1 1 1 1 0
-4 -5 -5 -5 -5 -5 -4 -4 -4 -5 -5 -4 -3 -1 -1 -3 -4 -4 -4 -2 -4 -5 -5 -1 1 2 1 -1 -1 -0 1 2 -1 -3 -4 -2 -1 -1 -2 -1 2 3 3 1 -0 -1 -1 -1 -0 -0 -1 -1 -1 -1 -0 0 1 2 2 3 2 2 2 1 1 1 1 1 1
-4 -5 -6 -5 -6 -6 -6 -5 -4 -4 -5 -6 -5 -3 -2 -2 -4 -4 -4 -2 -3 -4 -4 -4 -1 0 1 -0 -2 -1 1 3 2 -1 -2 -3 -1 -1 -1 -1 0 2 2 1 -0 -1 -1 -0 0 -0 -0 -1 -1 -1 -1 -0 1 2 2 3 2 2 2 2 2 2 1 1 2
-5 -5 -6 -6 -6 -6 -6 -7 -5 -4 -3 -4 -6 -6 -4 -3 -3 -4 -4 -3 -2 -2 -3 -4 -2 -1 -0 -1 -2 -2 -1 2 3 2 -0 -2 -1 -0 -0 -1 -1 0 1 1 -0 -1 -1 -0 0 0 -0 -1 -1 -1 -1 -1 0 1 2 2 2 2 2 2 2 2 2 2 2
-5 -5 -6 -7 -6 -5 -4 -6 -8 -6 -3 -1 -4 -5 -5 -4 -4 -3 -2 -4 -3 -2 -2 -3 -3 -2 -0 -1 -2 -3 -2 -0 2 3 2 -0 -0 0 0 -1 -1 -1 -0 0 -1 -1 -1 -1 -0 -0 -0 -1 -1 -2 -2 -1 -1 -0 -0 0 1 2 2 3 3 3 3 3 3
Height
5751 5750 5749 5747 5746 5745 5743 5742 5740 5739 5738 5736 5735 5733 5732 5730 5729 5728 5726 5724 5722 5721 5719 5717 5715 5714 5712 5710 5708 5706 5704 5702 5700 5699 5697 5695 5693 5691 5689 5687 5685 5683 5681 5680 5678 5676 5674 5672 5670 5669 5667 5666 5664 5662 5660 5659 5656 5654 5652 5650 5649 5647 5645 5644 5642 5640 5638 5636 5633
5748 5746 5745 5744 5742 5741 5740 5739 5737 5735 5734 5732 5730 5729 5727 5726 5725 5723 5722 5720 5718 5716 5715 5713 5711 5709 5707 5705 5703 5701 5699 5697 5695 5694 5692 5690 5688 5685 5684 5681 5680 5678 5676 5674 5672 5670 5668 5666 5664 5662 5661 5660 5658 5656 5654 5652 5650 5648 5645 5644 5642 5640 5639 5637 5636 5634 5631 5629 5627
5745 5743 5742 5740 5739 5738 5736 5735 5734 5732 5730 5728 5726 5725 5723 5721 5720 5719 5717 5715 5714 5712 5710 5708 5706 5705 5703 5700 5699 5696 5695 5693 5690 5689 5687 5685 5683 5680 5678 5676 5674 5672 5670 5668 5666 5664 5662 5660 5658 5656 5655 5653 5652 5650 5648 5645 5643 5641 5639 5637 5636 5634 5632 5630 5629 5627 5625 5622 5620
5741 5740 5738 5737 5735 5734 5733 5731 5730 5728 5726 5725 5723 5721 5719 5717 5715 5714 5712 5711 5709 5707 5705 5703 5702 5700 5698 5696 5694 5692 5690 5688 5685 5683 5681 5679 5677 5675 5673 5671 5669 5666 5664 5662 5660 5658 5655 5653 5651 5650 5648 5647 5645 5643 5641 5639 5636 5634 5632 5630 5629 5627 5625 5623 5621 5620 5617 5615 5613
5738 5737 5735 5734 5732 5730 5729 5727 5726 5724 5722 5720 5719 5717 5715 5713 5711 5709 5708 5706 5704 5702 5700 5698 5696 5695 5693 5691 5689 5686 5684 5682 5680 5678 5676 5674 5672 5670 5667 5665 5663 5660 5658 5656 5654 5651 5649 5647 5645 5643 5642 5640 5638 5636 5634 5632 5629 5627 5625 5623 5622 5620 5618 5616 5614 5612 5610 5607 5605
5735 5733 5731 5730 5728 5726 5725 5723 5722 5720 5718 5716 5714 5712 5710 5708 5706 5705 5703 5701 5699 5697 5695 5693 5691 5689 5687 5685 5683 5681 5679 5677 5674 5672 5670 5668 5666 5664 5661 5659 5656 5654 5652 5649 5647 5645 5642 5640 5638 5636 5635 5633 5631 5629 5627 5625 5622 5619 5617 5616 5614 5612 5610 5608 5606 5604 5601 5599 5597
5731 5729 5728 5726 5724 5723 5721 5719 5717 5715 5714 5712 5710 5708 5706 5704 5702 5700 5698 5696 5694 5692 5690 5688 5685 5684 5682 5680 5678 5675 5673 5671 5669 5666 5664 5662 5660 5657 5655 5653 5650 5648 5645 5643 5640 5637 5635 5633 5631 5629 5627 5626 5624 5622 5620 5617 5615 5612 5610 5608 5606 5605 5603 5600 5598 5595 5593 5591 5589
5727 5725 5723 5721 5720 5718 5716 5715 5713 5711 5709 5707 5705 5703 5701 5699 5697 5695 5693 5691 5689 5686 5684 5682 5680 5678 5676 5674 5672 5670 5667 5665 5663 5660 5658 5656 5654 5651 5649 5646 5644 5641 5638 5636 5633 5630 5628 5625 5624 5622 5620 5618 5616 5614 5612 5610 5607 5605 5602 5600 5599 5596 5594 5592 5590 5587 5585 5583 5581
5723 5721 5719 5717 5715 5714 5712 5710 5708 5706 5704 5702 5700 5698 5695 5693 5691 5689 5687 5685 5683 5681 5678 5676 5674 5672 5670 5668 5665 5663 5661 5659 5656 5654 5652 5649 5647 5645 5642 5640 5637 5634 5631 5629 5626 5623 5620 5618 5616 5614 5612 5610 5608 5606 5604 5601 5599 5596 5594 5592 5590 5588 5586 5583 5581 5579 5576 5574 5572
5719 5717 5715 5713 5711 5709 5707 5705 5703 5701 5699 5697 5695 5692 5690 5688 5685 5684 5681 5679 5677 5675 5672 5670 5668 5665 5664 5661 5659 5657 5655 5652 5650 5648 5645 5643 5640 5638 5635 5632 5630 5627 5624 5621 5618 5615 5613 5610 5608 5606 5604 5601 5599 5597 5595 5592 5590 5587 5585 5583 5581 5580 5577 5575 5572 5570 5567 5565 5563
5714 5712 5710 5708 5706 5704 5702 5700 5698 5696 5694 5691 5689 5687 5684 5682 5680 5677 5675 5673 5671 5669 5666 5664 5661 5659 5657 5655 5652 5650 5648 5645 5643 5641 5638 5636 5633 5630 5628 5625 5622 5620 5617 5614 5610 5607 5605 5602 5600 5598 5595 5593 5590 5588 5586 5583 5580 5578 5576 5575 5573 5571 5569 5566 5564 5561 5558 5555 5553
5710 5707 5705 5703 5701 5699 5697 5695 5693 5690 5688 5685 5683 5681 5678 5676 5674 5671 5669 5667 5665 5662 5660 5657 5655 5652 5650 5648 5645 5643 5641 5638 5636 5634 5631 5629 5626 5623 5620 5618 5615 5612 5609 5606 5603 5600 5597 5594 5592 5590 5587 5585 5582 5579 5577 5575 5572 5570 5567 5566 5564 5562 5560 5558 5555 5552 5549 5546 5544
5705 5702 5700 5698 5696 5694 5691 5689 5687 5685 5682 5680 5677 5675 5672 5670 5667 5665 5663 5660 5658 5656 5654 5651 5648 5646 5644 5641 5639 5636 5634 5631 5629 5626 5624 5621 5619 5616 5613 5610 5607 5605 5601 5599 5595 5592 5589 5586 5584 5581 5579 5576 5574 5571 5569 5566 5564 5561 5559 5557 5555 5553 5551 5549 5546 5543 5540 5537 5535
5699 5697 5695 5692 5690 5688 5685 5683 5681 5679 5676 5674 5671 5669 5666 5664 5661 5659 5656 5654 5652 5650 5647 5645 5642 5640 5637 5635 5632 5630 5627 5625 5622 5620 5617 5614 5612 5609 5606 5603 5600 5597 5594 5591 5588 5585 5582 5579 5576 5573 5571 5569 5566 5564 5561 5558 5555 5553 5550 5548 5546 5544 5542 5540 5537 5534 5531 5528 5525
5694 5691 5689 5687 5685 5682 5680 5678 5675 5673 5670 5668 5665 5663 5660 5657 5655 5653 5650 5648 5645 5643 5641 5639 5636 5633 5631 5628 5625 5623 5620 5618 5615 5613 5610 5607 5605 5602 5599 5596 5593 5590 5587 5584 5581 5578 5575 5571 5568 5565 5563 5560 5558 5556 5553 5550 5547 5545 5542 5540 5537 5535 5533 5530 5528 5525 5522 5519 5516
5689 5686 5684 5682 5679 5677 5675 5672 5670 5667 5665 5662 5659 5657 5654 5651 5649 5646 5644 5641 5639 5637 5635 5632 5630 5627 5625 5622 5619 5616 5614 5611 5609 5606 5603 5600 5598 5595 5592 5589 5585 5582 5579 5576 5573 5570 5567 5564 5560 5557 5555 5552 5550 5547 5545 5542 5539 5536 5533 5531 5528 5526 5524 5521 5518 5515 5512 5510 5507
5684 5681 5679 5676 5674 5671 5669 5666 5664 5661 5659 5656 5654 5651 5648 5645 5643 5640 5638 5635 5633 5630 5628 5626 5624 5621 5618 5615 5612 5610 5607 5604 5601 5599 5596 5593 5590 5587 5584 5581 5578 5575 5571 5568 5565 5562 5559 5555 5552 5549 5546 5543 5541 5539 5536 5534 5530 5528 5525 5522 5520 5517 5514 5512 5509 5506 5503 5500 5498
5679 5676 5674 5671 5669 5666 5664 5661 5658 5655 5653 5650 5648 5645 5642 5640 5637 5635 5632 5629 5627 5624 5622 5620 5617 5615 5612 5609 5606 5603 5600 5597 5594 5591 5588 5585 5582 5580 5576 5573 5570 5567 5564 5560 5557 5554 5550 5547 5544 5540 5537 5534 5532 5529 5527 5524 5522 5519 5516 5513 5511 5508 5505 5502 5500 5497 5494 5492 5490
5674 5671 5669 5666 5663 5661 5658 5655 5653 5650 5647 5645 5642 5639 5636 5634 5631 5629 5626 5623 5620 5618 5615 5613 5610 5608 5605 5602 5599 5596 5593 5590 5587 5584 5581 5578 5575 5572 5569 5565 5562 5559 5555 5552 5549 5545 5542 5538 5535 5532 5528 5525 5523 5520 5517 5515 5512 5510 5507 5505 5502 5499 5496 5494 5491 5488 5486 5483 5481
5668 5666 5663 5660 5658 5655 5652 5650 5647 5644 5641 5639 5636 5634 5631 5628 5625 5623 5620 5617 5614 5611 5609 5606 5604 5601 5598 5595 5592 5589 5586 5583 5580 5576 5573 5570 5567 5564 5561 5557 5554 5550 5547 5544 5540 5537 5533 5529 5526 5523 5519 5516 5513 5510 5508 5505 5503 5500 5498 5496 5493 5491 5488 5485 5483 5480 5478 5476 5474
5663 5660 5657 5655 5652 5650 5647 5644 5641 5639 5636 5633 5630 5628 5625 5622 5619 5616 5614 5611 5608 5605 5602 5599 5597 5594 5591 5588 5585 5582 5579 5576 5572 5569 5566 5563 5560 5556 5553 5549 5546 5542 5539 5535 5531 5528 5524 5520 5517 5513 5510 5507 5504 5501 5499 5496 5494 5492 5490 5487 5485 5483 5480 5478 5476 5473 5471 5469 5467
5657 5655 5652 5650 5647 5644 5641 5638 5635 5633 5630 5627 5625 5622 5619 5616 5613 5610 5607 5604 5601 5598 5595 5593 5590 5587 5584 5581 5578 5575 5572 5569 5565 5562 5559 5555 5552 5548 5545 5541 5537 5534 5530 5526 5523 5519 5515 5511 5508 5504 5501 5498 5495 5493 5490 5488 5486 5484 5482 5480 5477 5475 5473 5471 5469 5467 5465 5463 5461
5652 5650 5647 5644 5641 5639 5635 5633 5630 5627 5625 5622 5619 5616 5613 5610 5607 5604 5601 5598 5595 5592 5589 5586 5583 5580 5577 5574 5571 5568 5565 5561 5558 5554 5551 5547 5544 5540 5536 5532 5528 5525 5521 5518 5514 5510 5505 5502 5499 5495 5492 5490 5487 5485 5483 5480 5478 5476 5475 5473 5471 5469 5467 5465 5463 5461 5460 5458 5456
5647 5644 5641 5639 5636 5633 5630 5627 5624 5621 5619 5616 5613 5610 5607 5604 5601 5598 5595 5591 5588 5585 5582 5579 5575 5573 5570 5566 5563 5560 5556 5553 5550 5546 5543 5539 5535 5532 5528 5524 5520 5516 5512 5509 5505 5500 5496 5493 5490 5487 5484 5482 5480 5478 5476 5474 5472 5470 5468 5466 5465 5463 5462 5460 5459 5457 5455 5453 5451
5642 5639 5636 5633 5630 5627 5624 5621 5619 5615 5613 5610 5607 5604 5600 5597 5594 5591 5588 5585 5582 5579 5575 5572 5569 5565 5562 5559 5555 5552 5548 5545 5541 5538 5535 5531 5527 5523 5519 5515 5512 5508 5504 5500 5496 5492 5488 5485 5481 5479 5476 5474 5472 5471 5469 5468 5466 5464 5463 5461 5460 5459 5457 5456 5454 5453 5451 5449 5447
5636 5633 5630 5628 5625 5621 5618 5615 5612 5610 5606 5604 5600 5597 5594 5591 5588 5585 5581 5578 5575 5572 5568 5565 5561 5558 5555 5551 5547 5544 5540 5536 5532 5529 5525 5522 5519 5515 5511 5507 5503 5500 5496 5492 5488 5485 5481 5477 5474 5471 5468 5466 5465 5464 5463 5461 5460 5459 5458 5456 5455 5454 5453 5451 5450 5449 5447 5445 5443
5630 5628 5625 5622 5619 5616 5612 5609 5606 5603 5600 5597 5594 5591 5588 5584 5581 5578 5575 5571 5568 5565 5561 5558 5554 5551 5547 5543 5540 5536 5532 5528 5524 5520 5516 5513 5510 5507 5503 5499 5495 5491 5488 5484 5481 5477 5474 5471 5468 5465 5462 5460 5458 5457 5457 5456 5455 5454 5452 5451 5450 5449 5448 5446 5445 5444 5442 5440 5438
5625 5622 5619 5616 5613 5610 5606 5603 5600 5597 5594 5591 5588 5584 5581 5578 5575 5571 5568 5565 5561 5558 5555 5551 5547 5543 5540 5536 5532 5528 5524 5520 5516 5512 5508 5505 5501 5498 5495 5492 5488 5484 5480 5477 5474 5470 5468 5465 5462 5460 5457 5455 5453 5451 5451 5450 5450 5449 5448 5447 5445 5444 5443 5442 5440 5439 5437 5435 5434
5619 5616 5613 5610 5607 5604 5600 5597 5594 5590 5587 5584 5581 5578 5575 5571 5568 5565 5561 5558 5554 5551 5547 5544 5540 5535 5532 5528 5524 5520 5516 5512 5508 5504 5500 5497 5493 5490 5487 5484 5481 5477 5474 5471 5467 5465 5462 5460 5457 5455 5452 5450 5448 5447 5446 5445 5445 5444 5443 5442 5441 5440 5438 5437 5435 5434 5433 5431 5429
5613 5610 5607 5604 5601 5598 5594 5591 5588 5584 5581 5578 5575 5571 5568 5565 5561 5558 5554 5550 5547 5543 5540 5536 5532 5528 5524 5520 5516 5512 5508 5504 5500 5496 5493 5489 5486 5483 5480 5477 5474 5471 5468 5465 5462 5459 5456 5454 5452 5450 5448 5445 5444 5442 5442 5441 5440 5440 5439 5438 5437 5435 5434 5432 5430 5429 5428 5426 5425
5607 5604 5601 5598 5595 5591 5588 5585 5581 5578 5575 5571 5568 5565 5561 5558 5554 5550 5547 5543 5540 5536 5532 5528 5524 5520 5516 5512 5508 5505 5500 5497 5493 5489 5485 5482 5479 5476 5474 5471 5468 5465 5462 5459 5456 5454 5452 5450 5447 5445 5444 5442 5440 5439 5438 5437 5436 5435 5434 5433 5432 5430 5429 5427 5426 5425 5423 5421 5420
5600 5597 5595 5591 5588 5585 5582 5578 5575 5572 5568 5565 5561 5558 5555 5551 5547 5543 5540 5535 5532 5528 5524 5520 5516 5512 5508 5505 5500 5497 5493 5489 5486 5482 5479 5475 5473 5470 5468 5465 5463 5460 5457 5454 5451 5449 5447 5445 5443 5441 5440 5438 5436 5435 5434 5433 5432 5431 5430 5429 5427 5426 5425 5423 5421 5420 5418 5416 5415
5594 5591 5588 5585 5582 5579 5575 5572 5569 5565 5562 5559 5555 5551 5548 5544 5540 5536 5532 5528 5524 5520 5517 5513 5509 5505 5501 5497 5493 5490 5486 5482 5479 5476 5473 5470 5467 5465 5462 5460 5458 5455 5452 5449 5447 5445 5442 5440 5439 5437 5435 5434 5432 5431 5430 5429 5428 5426 5425 5424 5423 5421 5420 5418 5416 5415 5413 5412 5410
5588 5585 5582 5579 5576 5573 5570 5566 5563 5559 5556 5552 5549 5545 5541 5537 5533 5529 5525 5520 5516 5512 5509 5505 5501 5497 5493 5490 5486 5483 5480 5476 5473 5470 5467 5464 5462 5459 5457 5455 5453 5450 5447 5445 5442 5440 5438 5436 5435 5433 5432 5430 5429 5428 5426 5425 5424 5422 5421 5420 5419 5417 5415 5414 5412 5410 5409 5407 5406
5582 5579 5576 5573 5570 5567 5564 5560 5556 5553 5549 5546 5542 5538 5534 5529 5525 5521 5517 5513 5510 5505 5502 5498 5494 5490 5486 5482 5479 5476 5473 5470 5467 5464 5461 5459 5457 5455 5452 5450 5448 5445 5443 5440 5438 5435 5434 5432 5431 5429 5428 5426 5425 5424 5422 5421 5420 5419 5417 5416 5415 5413 5411 5409 5407 5406 5405 5404 5403
5575 5573 5570 5567 5564 5561 5557 5554 5550 5546 5543 5539 5535 5531 5527 5522 5518 5514 5510 5506 5502 5499 5495 5491 5487 5484 5480 5476 5473 5470 5467 5464 5462 5459 5456 5454 5452 5450 5448 5446 5444 5441 5438 5435 5433 5431 5430 5428 5427 5425 5424 5423 5421 5420 5419 5417 5416 5415 5413 5412 5410 5409 5407 5405 5403 5402 5401 5400 5399
5570 5567 5564 5561 5558 5555 5551 5547 5544 5540 5535 5531 5527 5523 5519 5515 5511 5507 5502 5498 5495 5492 5488 5485 5481 5477 5474 5471 5468 5465 5462 5459 5457 5454 5452 5450 5447 5445 5444 5441 5440 5437 5434 5431 5429 5427 5426 5424 5423 5422 5420 5419 5417 5416 5415 5414 5412 5411 5410 5408 5406 5405 5403 5401 5400 5398 5397 5396 5395
5564 5560 5557 5555 5551 5548 5544 5540 5536 5532 5528 5524 5520 5516 5512 5508 5504 5500 5495 5491 5488 5485 5481 5478 5475 5471 5468 5465 5463 5460 5457 5455 5452 5450 5447 5445 5443 5441 5439 5437 5435 5433 5430 5427 5425 5423 5422 5420 5419 5418 5416 5415 5414 5412 5411 5410 5408 5407 5405 5404 5402 5401 5399 5397 5396 5395 5394 5393 5392
5558 5554 5551 5548 5544 5541 5537 5533 5529 5525 5520 5517 5513 5508 5504 5500 5497 5493 5489 5485 5481 5478 5475 5472 5469 5465 5462 5460 5457 5455 5453 5450 5448 5445 5443 5440 5438 5436 5434 5432 5430 5428 5426 5424 5421 5420 5418 5417 5415 5414 5413 5411 5410 5408 5407 5406 5405 5403 5402 5400 5398 5397 5395 5394 5392 5391 5391 5390 5389
5551 5548 5544 5540 5537 5533 5530 5525 5521 5517 5513 5509 5505 5501 5497 5494 5490 5486 5482 5479 5475 5471 5468 5465 5463 5460 5457 5455 5452 5450 5448 5446 5444 5441 5439 5436 5434 5432 5430 5428 5425 5424 5422 5420 5417 5416 5415 5413 5412 5410 5409 5407 5406 5405 5403 5402 5400 5399 5397 5396 5395 5393 5392 5390 5389 5388 5387 5387 5386
5545 5541 5537 5534 5530 5525 5522 5518 5514 5510 5505 5501 5498 5494 5490 5487 5483 5480 5476 5473 5469 5465 5462 5460 5457 5455 5452 5450 5447 5445 5444 5442 5440 5437 5435 5432 5430 5427 5425 5423 5421 5419 5417 5415 5414 5412 5411 5410 5408 5407 5405 5404 5402 5401 5400 5398 5396 5395 5393 5392 5390 5389 5388 5387 5386 5385 5384 5383 5383